Le nostre stazioni meteo in Italia

Pubblicità
Il mio iltempo24.it
Catania/Sigonella, Italia (16459): Temperatura & dewpoint: 05.12.2018 02:00:00 - 11.12.2018 02:00:00 (CET)Catania/Sigonella, Italia (16459): velocità del vento: 05.12.2018 02:00:00 - 11.12.2018 02:00:00 (CET)Catania/Sigonella, Italia (16459): direzione del vento: 05.12.2018 02:00:00 - 11.12.2018 02:00:00 (CET)Catania/Sigonella, Italia (16459): reduced air pressure: 05.12.2018 02:00:00 - 11.12.2018 02:00:00 (CET)Catania/Sigonella, Italia (16459): visibility: 05.12.2018 02:00:00 - 11.12.2018 02:00:00 (CET)
Data & Tempo tt [°C] td [°C] ff [km/h] ff [kn] dd ppp [hPa] vv [km]
11.12.2018 02:00:00 11,0 11,0 - - - - 10
11.12.2018 01:00:00 11,0 11,0 11 6 N 1015,6 10
11.12.2018 00:00:00 10,0 10,0 - - - - 10
10.12.2018 23:00:00 11,0 10,0 - - - - 10
10.12.2018 22:00:00 12,4 10,8 22 12 OSO 1015,3 10
10.12.2018 21:00:00 13,0 10,0 - - - - 10
10.12.2018 20:00:00 13,0 9,0 - - - - 10
10.12.2018 19:00:00 13,0 11,1 29 16 O 1014,7 10
10.12.2018 18:00:00 14,0 8,0 - - - - 10
10.12.2018 17:00:00 15,0 5,0 - - - - 10
10.12.2018 16:00:00 17,0 5,3 22 12 ONO 1014,5 10
10.12.2018 15:00:00 19,0 7,0 - - - - 10
10.12.2018 14:00:00 19,0 7,0 - - - - 10
10.12.2018 13:00:00 18,8 4,2 31 17 O 1014,5 10
10.12.2018 12:00:00 19,0 9,0 - - - - 10
10.12.2018 11:00:00 19,0 9,0 - - - - 10
10.12.2018 10:00:00 17,0 9,9 35 19 O 1015,9 10
10.12.2018 09:00:00 14,0 11,0 - - - - 10
10.12.2018 08:00:00 13,0 12,0 - - - - 10
10.12.2018 07:00:00 12,6 10,1 18 10 OSO 1014,9 10
10.12.2018 06:00:00 14,0 8,0 - - - - 10
10.12.2018 05:00:00 13,0 13,0 - - - - 10
10.12.2018 04:00:00 12,8 12,8 22 12 OSO 1013,6 10
10.12.2018 03:00:00 14,0 13,0 - - - - 10
10.12.2018 02:00:00 13,0 13,0 - - - - 10
10.12.2018 01:00:00 14,0 13,7 41 22 OSO 1014,5 10
10.12.2018 00:00:00 14,0 14,0 - - - - 10
09.12.2018 23:00:00 14,0 13,0 - - - - 10
09.12.2018 22:00:00 14,0 13,2 28 15 O 1015,7 10
09.12.2018 21:00:00 15,0 13,0 - - - - 10
09.12.2018 20:00:00 15,0 13,0 - - - - 10
09.12.2018 19:00:00 14,2 14,2 22 12 O 1016,1 10
09.12.2018 18:00:00 15,0 13,0 - - - - 10
09.12.2018 17:00:00 16,0 12,0 - - - - 10
09.12.2018 16:00:00 19,0 12,3 28 15 O 1016,3 15
09.12.2018 15:00:00 20,0 11,0 - - - - 10
09.12.2018 14:00:00 20,0 11,0 - - - - 10
09.12.2018 13:00:00 19,0 11,1 31 17 OSO 1017,4 15
09.12.2018 12:00:00 19,0 11,0 - - - - 10
09.12.2018 11:00:00 18,0 11,0 - - - - 10
09.12.2018 10:00:00 17,0 11,1 29 16 OSO 1019,6 15
09.12.2018 09:00:00 15,0 11,0 - - - - 10
09.12.2018 08:00:00 12,0 10,0 - - - - 10
09.12.2018 07:00:00 13,0 8,9 28 15 O 1018,3 15
09.12.2018 06:00:00 12,0 9,0 - - - - 10
09.12.2018 05:00:00 10,0 9,0 - - - - 10
09.12.2018 04:00:00 10,4 9,5 24 13 SO 1017,7 15
09.12.2018 03:00:00 11,0 9,0 - - - - 10
09.12.2018 02:00:00 12,0 9,0 - - - - 10
09.12.2018 01:00:00 13,0 9,6 26 14 O 1017,7 15
09.12.2018 00:00:00 13,0 9,0 - - - - 10
08.12.2018 23:00:00 13,0 9,0 - - - - 10
08.12.2018 22:00:00 11,6 9,4 22 12 OSO 1017,7 15
08.12.2018 21:00:00 14,0 9,0 - - - - 10
08.12.2018 20:00:00 13,0 8,0 - - - - 10
08.12.2018 19:00:00 14,0 9,8 18 10 O 1016,5 10
08.12.2018 18:00:00 16,0 9,0 - - - - 10
08.12.2018 17:00:00 17,0 9,0 - - - - 10
08.12.2018 16:00:00 19,8 12,8 16 9 O 1015,4 10
08.12.2018 15:00:00 20,0 12,0 - - - - 10
08.12.2018 14:00:00 20,0 13,0 - - - - 10
08.12.2018 13:00:00 20,4 13,4 31 17 OSO 1016,5 10
08.12.2018 12:00:00 20,0 13,0 - - - - 10
08.12.2018 11:00:00 18,0 12,0 - - - - 10
08.12.2018 10:00:00 17,0 15,0 24 13 O 1019,3 10
08.12.2018 09:00:00 13,0 13,0 - - - - 10
08.12.2018 08:00:00 9,0 9,0 - - - - 10
08.12.2018 07:00:00 8,0 8,0 13 7 NNE 1019,9 16
08.12.2018 06:00:00 7,0 7,0 - - - - 10
08.12.2018 05:00:00 6,0 6,0 - - - - 10
08.12.2018 04:00:00 6,2 6,2 8 4 O 1020,3 15
08.12.2018 03:00:00 7,0 7,0 - - - - 10
08.12.2018 02:00:00 8,0 8,0 - - - - 10
08.12.2018 01:00:00 8,6 8,6 9 5 O 1021,6 15
08.12.2018 00:00:00 8,0 8,0 - - - - 10
07.12.2018 23:00:00 9,0 9,0 - - - - 10
07.12.2018 22:00:00 10,2 10,2 11 6 O 1022,6 15
07.12.2018 21:00:00 10,0 10,0 - - - - 10
07.12.2018 20:00:00 11,0 11,0 - - - - 10
07.12.2018 19:00:00 12,8 12,8 4 2 O 1022,7 12
07.12.2018 18:00:00 14,0 14,0 - - - - 10
07.12.2018 17:00:00 14,0 13,0 - - - - 10
07.12.2018 16:00:00 16,4 14,1 15 8 E 1022,4 12
07.12.2018 15:00:00 17,0 13,0 - - - - 10
07.12.2018 14:00:00 17,0 13,0 - - - - 10
07.12.2018 13:00:00 16,8 13,1 26 14 E 1022,5 10
07.12.2018 12:00:00 17,0 13,0 - - - - 9
07.12.2018 11:00:00 16,0 13,0 - - - - 9
07.12.2018 10:00:00 15,4 13,4 31 17 ENE 1022,5 8
07.12.2018 09:00:00 15,0 15,0 - - - - 8
07.12.2018 08:00:00 15,0 15,0 - - - - 8
07.12.2018 07:00:00 10,2 10,2 4 2 NNE 1020,5 8
07.12.2018 06:00:00 10,0 10,0 - - - - 10
07.12.2018 05:00:00 9,0 9,0 - - - - 10
07.12.2018 04:00:00 10,0 10,0 5 3 OSO 1019,4 10
07.12.2018 03:00:00 11,0 11,0 - - - - 10
07.12.2018 02:00:00 11,0 11,0 - - - - 10
07.12.2018 01:00:00 10,0 10,0 13 7 SO 1019,6 10
07.12.2018 00:00:00 11,0 11,0 - - - - 10
06.12.2018 23:00:00 11,0 11,0 - - - - 10
06.12.2018 22:00:00 11,0 11,0 5 3 NO 1020,1 12
06.12.2018 21:00:00 11,0 11,0 - - - - 10
06.12.2018 20:00:00 12,0 12,0 - - - - 10
06.12.2018 19:00:00 13,0 13,0 4 2 ONO 1020,2 15
06.12.2018 18:00:00 14,0 13,0 - - - - 10
06.12.2018 17:00:00 15,0 10,0 - - - - 10
06.12.2018 16:00:00 16,6 9,3 15 8 E 1020,1 22
06.12.2018 15:00:00 18,0 6,0 - - - - 10
06.12.2018 14:00:00 20,0 6,0 - - - - 10
06.12.2018 13:00:00 19,8 5,5 5 3 N 1021,4 22
06.12.2018 12:00:00 20,0 13,0 - - - - 10
06.12.2018 11:00:00 16,0 11,0 - - - - 10
06.12.2018 10:00:00 13,6 12,8 8 4 O 1024,1 25
06.12.2018 09:00:00 9,0 9,0 - - - - 10
06.12.2018 08:00:00 6,0 6,0 - - - - 10
06.12.2018 07:00:00 5,0 5,0 11 6 OSO 1024,1 12
06.12.2018 06:00:00 5,0 5,0 - - - - 10
06.12.2018 05:00:00 5,0 5,0 - - - - 10
06.12.2018 04:00:00 7,0 7,0 9 5 ONO 1024,7 10
06.12.2018 03:00:00 7,0 7,0 - - - - 10
06.12.2018 02:00:00 7,0 7,0 - - - - 10
06.12.2018 01:00:00 9,8 9,8 9 5 O 1025,1 10
06.12.2018 00:00:00 10,0 10,0 - - - - 10
05.12.2018 23:00:00 10,0 10,0 - - - - 10
05.12.2018 22:00:00 11,4 11,4 11 6 O 1024,9 10
05.12.2018 21:00:00 12,0 12,0 - - - - 10
05.12.2018 20:00:00 12,0 12,0 - - - - 10
05.12.2018 19:00:00 13,0 13,0 8 4 O 1023,7 12
05.12.2018 18:00:00 14,0 14,0 - - - - 10
05.12.2018 17:00:00 15,0 15,0 - - - - 10
05.12.2018 16:00:00 18,0 13,5 11 6 E 1022,5 12
05.12.2018 15:00:00 19,0 13,0 - - - - 10
05.12.2018 14:00:00 19,0 13,0 - - - - 10
05.12.2018 13:00:00 20,0 13,0 13 7 E 1021,6 12
05.12.2018 12:00:00 20,0 13,0 - - - - 10
05.12.2018 11:00:00 21,0 13,0 - - - - 10
05.12.2018 10:00:00 18,0 14,5 5 3 E 1021,5 12
05.12.2018 09:00:00 16,0 16,0 - - - - 10
05.12.2018 08:00:00 13,0 13,0 - - - - 10
05.12.2018 07:00:00 10,8 10,8 4 2 S 1019,7 10
05.12.2018 06:00:00 13,0 13,0 - - - - 10
05.12.2018 05:00:00 13,0 13,0 - - - - 10
05.12.2018 04:00:00 13,4 13,4 15 8 OSO 1017,5 10
05.12.2018 03:00:00 - - - - - - -
05.12.2018 02:00:00 13,0 13,0 - - - - 10

tt = Temperatura
td = dewpoint
ff = velocità del vento
dd = direzione del vento
ppp = reduced air pressure
vv = visibility

Stazioni seguenti

WeatherPro
AMSI
MeteoEarth